GEOSCAN 3 (RS92S3)

Last updated on Mon Nov 03 2025 00:03:22 GMT+0000 (Coordinated Universal Time)

1 64893U 25155T 25306.45007523 .00018679 00000+0 72994-3 0 9994 2 64893 97.4277 270.6348 0003950 275.9856 84.0931 15.25911806 46167
UTC large
Height (km)
Speed (km/s)
/
Latitude / Longitude
Inclination (degrees)
Orbital Period (minutes)
Azimuth
Elevation
Range (km)
Doppler Factor

Next 0 passes for location: London (51.5072 / 0.1276)

Sorry there are no passes over London.